Location: *
(51.4660°N, 0.3360°W)
Time: 23:00:21
(UTC+00:00)

Cosmos 1766 - Pass Details

Date: 19 September 2019
Orbit: 521 x 546 km, 82.5° (Epoch: 15 October)

Event Time Altitude Azimuth Distance (km) Brightness Sun altitude
Exits shadow 20:25:27 70° 157° (SSE) 573 3.1 -21.2°
Maximum altitude 20:25:48 79° 99° (E) 551 3.1 -21.2°
Drops below altitude 10° 20:29:45 10° 13° (NNE) 1,794 6.2 -21.8°
Sets 20:31:54 0° 12° (NNE) 2,686 7.1 -22.0°
